TimeCDT,TemperatureF,Dew PointF,Humidity,Sea Level PressureIn,VisibilityMPH,Wind Direction,Wind SpeedMPH,Gust SpeedMPH,PrecipitationIn,Events,Conditions,WindDirDegrees,DateUTC
12:53 AM,68.0,62.1,81,29.99,10.0,Calm,Calm,-,0.00,Rain,Light Rain,0,2013-05-16 05:53:00
1:53 AM,66.0,61.0,84,29.98,10.0,Calm,Calm,-,0.00,,Partly Cloudy,0,2013-05-16 06:53:00
2:53 AM,64.9,62.1,90,29.96,10.0,South,6.9,-,N/A,,Mostly Cloudy,170,2013-05-16 07:53:00
3:53 AM,64.0,61.0,90,29.97,10.0,South,9.2,-,N/A,,Clear,180,2013-05-16 08:53:00
4:53 AM,64.9,62.1,90,29.97,10.0,South,4.6,-,N/A,,Mostly Cloudy,180,2013-05-16 09:53:00
5:53 AM,64.9,62.1,90,29.96,10.0,South,6.9,-,N/A,,Mostly Cloudy,170,2013-05-16 10:53:00
6:53 AM,66.0,63.0,90,29.99,9.0,South,5.8,-,N/A,,Overcast,170,2013-05-16 11:53:00
7:53 AM,66.9,63.0,87,29.99,10.0,SSE,6.9,-,N/A,,Mostly Cloudy,150,2013-05-16 12:53:00
8:53 AM,69.1,64.0,84,29.99,10.0,SSE,10.4,-,N/A,,Overcast,160,2013-05-16 13:53:00
9:53 AM,72.0,64.0,76,29.97,10.0,SSE,9.2,-,N/A,,Partly Cloudy,150,2013-05-16 14:53:00
10:53 AM,72.0,64.0,76,29.96,10.0,SSE,10.4,18.4,N/A,,Clear,160,2013-05-16 15:53:00
11:53 AM,72.0,63.0,73,29.97,10.0,South,11.5,-,N/A,,Clear,170,2013-05-16 16:53:00
12:53 PM,73.9,64.0,71,29.96,10.0,South,11.5,18.4,N/A,,Mostly Cloudy,180,2013-05-16 17:53:00
1:53 PM,75.0,63.0,66,29.95,10.0,South,12.7,-,N/A,,Scattered Clouds,180,2013-05-16 18:53:00
2:53 PM,75.0,64.0,69,29.94,10.0,South,15.0,-,0.00,,Mostly Cloudy,180,2013-05-16 19:53:00
3:53 PM,73.9,64.0,71,29.94,10.0,SSW,10.4,-,0.00,Rain,Light Rain,200,2013-05-16 20:53:00
4:53 PM,75.0,64.0,69,29.93,10.0,South,9.2,-,0.00,,Mostly Cloudy,180,2013-05-16 21:53:00
5:53 PM,75.9,63.0,64,29.90,10.0,South,11.5,-,N/A,,Clear,170,2013-05-16 22:53:00
6:53 PM,75.9,63.0,64,29.87,10.0,SSE,11.5,-,N/A,,Clear,150,2013-05-16 23:53:00
7:53 PM,73.9,63.0,68,29.89,10.0,SSE,5.8,-,N/A,,Partly Cloudy,160,2013-05-17 00:53:00
8:53 PM,71.1,64.9,81,29.91,9.0,SE,5.8,-,0.00,Rain,Light Rain,130,2013-05-17 01:53:00
9:53 PM,70.0,66.0,87,29.92,6.0,East,6.9,-,0.08,Rain-Thunderstorm,Rain,90,2013-05-17 02:53:00
10:02 PM,69.8,66.2,88,29.91,6.0,East,5.8,-,0.01,Rain,Rain,90,2013-05-17 03:02:00
10:53 PM,69.1,66.9,93,29.93,8.0,ESE,8.1,-,0.05,Rain,Light Rain,110,2013-05-17 03:53:00
11:53 PM,69.1,66.0,90,29.89,5.0,SE,13.8,21.9,0.06,Rain,Rain,130,2013-05-17 04:53:00